• In Netherlands
  • List of Countries
  • For 7 days
  • Water Temperature
  • Satellite Maps
  • Weather Map
  • Weather Widgets
  • user-avatar
    Login

    Hourly Weather Vidin

    Today, 24 February, Friday

    Time Temperature Precipitation Wind Pressure Humidity
    00:00 +9°C° 0 mm 2 mps 755 mmHg 84%
    01:00 +8°C° 0 mm 2 mps 755 mmHg 84%
    02:00 +8°C° 0 mm 2 mps 755 mmHg 85%
    03:00 +7°C° 0 mm 2 mps 755 mmHg 85%
    04:00 +7°C° 0 mm 2 mps 755 mmHg 85%
    05:00 +7°C° 0 mm 2 mps 755 mmHg 84%
    06:00 +7°C° 0 mm 3 mps 755 mmHg 83%
    07:00 +7°C° 0 mm 3 mps 755 mmHg 82%
    08:00 +7°C° 0 mm 3 mps 755 mmHg 81%
    09:00 +9°C° 0 mm 3 mps 755 mmHg 73%
    10:00 +11°C° 0 mm 3 mps 755 mmHg 65%
    11:00 +14°C° 0 mm 3 mps 755 mmHg 57%
    12:00 +16°C° 0 mm 3 mps 754 mmHg 54%
    13:00 +17°C° 0 mm 3 mps 754 mmHg 50%
    14:00 +18°C° 0 mm 3 mps 754 mmHg 47%
    15:00 +18°C° 0 mm 3 mps 753 mmHg 51%
    16:00 +17°C° 0 mm 2 mps 753 mmHg 56%
    17:00 +16°C° 0 mm 2 mps 753 mmHg 60%
    18:00 +15°C° 0.2 mm 2 mps 753 mmHg 65%
    19:00 +14°C° 0.2 mm 2 mps 753 mmHg 70%
    20:00 +12°C° 0.2 mm 2 mps 753 mmHg 75%
    21:00 +12°C° 0.2 mm 2 mps 753 mmHg 77%
    22:00 +10°C° 0.2 mm 2 mps 753 mmHg 80%
    23:00 +11°C° 0.2 mm 1 mps 753 mmHg 82%

    Tomorrow, 25 February, Saturday

    Time Temperature Precipitation Wind Pressure Humidity
    00:00 +10°C° 0.1 mm 2 mps 754 mmHg 82%
    01:00 +10°C° 0.1 mm 2 mps 754 mmHg 82%
    02:00 +10°C° 0.1 mm 2 mps 754 mmHg 81%
    03:00 +9°C° 0 mm 3 mps 755 mmHg 82%
    04:00 +7°C° 0 mm 4 mps 755 mmHg 82%
    05:00 +6°C° 0 mm 5 mps 755 mmHg 83%
    06:00 +6°C° 0.1 mm 5 mps 756 mmHg 81%
    07:00 +5°C° 0.1 mm 5 mps 757 mmHg 79%
    08:00 +4°C° 0.1 mm 6 mps 758 mmHg 78%
    09:00 +4°C° 0.1 mm 6 mps 759 mmHg 75%
    10:00 +5°C° 0.1 mm 6 mps 759 mmHg 72%
    11:00 +5°C° 0.1 mm 6 mps 760 mmHg 69%
    12:00 +5°C° 0 mm 6 mps 760 mmHg 67%
    13:00 +5°C° 0 mm 6 mps 761 mmHg 65%
    14:00 +7°C° 0 mm 6 mps 762 mmHg 63%
    15:00 +7°C° 0 mm 5 mps 762 mmHg 63%
    16:00 +6°C° 0 mm 5 mps 762 mmHg 64%
    17:00 +6°C° 0 mm 4 mps 762 mmHg 65%
    18:00 +5°C° 0 mm 4 mps 763 mmHg 69%
    19:00 +4°C° 0 mm 4 mps 764 mmHg 72%
    20:00 +4°C° 0 mm 3 mps 764 mmHg 76%
    21:00 +3°C° 0 mm 3 mps 765 mmHg 78%
    22:00 +3°C° 0 mm 2 mps 765 mmHg 80%
    23:00 +3°C° 0 mm 2 mps 766 mmHg 82%

    Day after tomorrow, 26 February, Sunday

    Time Temperature Precipitation Wind Pressure Humidity
    00:00 +2°C° 0 mm 2 mps 766 mmHg 83%
    01:00 +2°C° 0 mm 2 mps 766 mmHg 84%
    02:00 +2°C° 0 mm 2 mps 766 mmHg 85%
    03:00 +3°C° 0 mm 1 mps 766 mmHg 86%
    04:00 +3°C° 0 mm 1 mps 766 mmHg 87%
    05:00 +2°C° 0 mm 1 mps 766 mmHg 88%
    06:00 +3°C° 0 mm 1 mps 766 mmHg 88%
    07:00 +3°C° 0 mm 1 mps 766 mmHg 88%
    08:00 +4°C° 0 mm 1 mps 766 mmHg 89%
    09:00 +4°C° 0 mm 2 mps 766 mmHg 83%
    10:00 +5°C° 0 mm 2 mps 766 mmHg 78%
    11:00 +5°C° 0 mm 3 mps 766 mmHg 72%
    12:00 +7°C° 0 mm 2 mps 765 mmHg 69%
    13:00 +8°C° 0 mm 2 mps 764 mmHg 65%
    14:00 +9°C° 0 mm 2 mps 764 mmHg 62%
    15:00 +9°C° 0 mm 2 mps 763 mmHg 63%
    16:00 +8°C° 0 mm 2 mps 763 mmHg 65%
    17:00 +8°C° 0 mm 2 mps 762 mmHg 67%
    18:00 +8°C° 0 mm 1 mps 762 mmHg 73%
    19:00 +7°C° 0 mm 1 mps 763 mmHg 79%
    20:00 +5°C° 0 mm 1 mps 763 mmHg 85%
    21:00 +5°C° 0 mm 1 mps 763 mmHg 86%
    22:00 +4°C° 0 mm 1 mps 762 mmHg 87%
    23:00 +4°C° 0 mm 1 mps 762 mmHg 88%

    27 February, Monday

    Time Temperature Precipitation Wind Pressure Humidity
    00:00 +4°C° 0 mm 1 mps 762 mmHg 89%
    01:00 +4°C° 0 mm 1 mps 762 mmHg 90%
    02:00 +3°C° 0 mm 1 mps 762 mmHg 91%
    03:00 +3°C° 0 mm 1 mps 761 mmHg 92%
    04:00 +2°C° 0 mm 0 mps 761 mmHg 92%
    05:00 +2°C° 0 mm 0 mps 761 mmHg 93%
    06:00 +2°C° 0 mm 0 mps 761 mmHg 91%
    07:00 +3°C° 0 mm 0 mps 761 mmHg 90%
    08:00 +3°C° 0 mm 0 mps 761 mmHg 88%
    09:00 +5°C° 0 mm 0 mps 760 mmHg 81%
    10:00 +7°C° 0 mm 0 mps 760 mmHg 74%
    11:00 +9°C° 0 mm 0 mps 760 mmHg 67%
    12:00 +10°C° 0 mm 0 mps 760 mmHg 64%
    13:00 +13°C° 0 mm 1 mps 759 mmHg 62%
    14:00 +14°C° 0 mm 1 mps 758 mmHg 59%
    15:00 +13°C° 0 mm 1 mps 758 mmHg 62%
    16:00 +13°C° 0 mm 1 mps 758 mmHg 65%
    17:00 +13°C° 0 mm 1 mps 757 mmHg 68%
    18:00 +11°C° 0 mm 1 mps 758 mmHg 74%
    19:00 +9°C° 0 mm 1 mps 758 mmHg 80%
    20:00 +8°C° 0 mm 1 mps 758 mmHg 86%
    21:00 +7°C° 0 mm 1 mps 758 mmHg 87%
    22:00 +7°C° 0 mm 1 mps 758 mmHg 88%
    23:00 +7°C° 0 mm 1 mps 758 mmHg 89%

    28 February, Tuesday

    Time Temperature Precipitation Wind Pressure Humidity
    00:00 +6°C° 0 mm 1 mps 758 mmHg 90%
    01:00 +6°C° 0 mm 1 mps 757 mmHg 90%
    02:00 +6°C° 0 mm 1 mps 757 mmHg 91%
    03:00 +6°C° 0 mm 1 mps 757 mmHg 91%
    04:00 +5°C° 0 mm 1 mps 757 mmHg 92%
    05:00 +5°C° 0 mm 1 mps 757 mmHg 92%
    06:00 +5°C° 0 mm 1 mps 757 mmHg 93%
    07:00 +5°C° 0 mm 1 mps 757 mmHg 93%
    08:00 +6°C° 0 mm 1 mps 758 mmHg 93%
    09:00 +8°C° 0 mm 1 mps 758 mmHg 84%
    10:00 +10°C° 0 mm 1 mps 758 mmHg 76%
    11:00 +13°C° 0 mm 1 mps 758 mmHg 68%
    12:00 +14°C° 0 mm 1 mps 757 mmHg 63%
    13:00 +15°C° 0 mm 1 mps 756 mmHg 59%
    14:00 +16°C° 0 mm 1 mps 756 mmHg 55%
    15:00 +16°C° 0 mm 1 mps 756 mmHg 58%
    16:00 +16°C° 0 mm 1 mps 756 mmHg 60%
    17:00 +16°C° 0 mm 1 mps 755 mmHg 63%
    18:00 +14°C° 0 mm 1 mps 756 mmHg 70%
    19:00 +12°C° 0 mm 1 mps 756 mmHg 77%
    20:00 +9°C° 0 mm 2 mps 756 mmHg 84%
    21:00 +9°C° 0 mm 2 mps 756 mmHg 84%
    22:00 +9°C° 0 mm 2 mps 756 mmHg 85%
    23:00 +8°C° 0 mm 2 mps 756 mmHg 86%

    1 March, Wednesday

    Time Temperature Precipitation Wind Pressure Humidity
    00:00 +9°C° 0 mm 1 mps 756 mmHg 87%
    01:00 +8°C° 0 mm 1 mps 756 mmHg 87%
    02:00 +8°C° 0 mm 1 mps 756 mmHg 88%
    03:00 +8°C° 0 mm 1 mps 756 mmHg 88%
    04:00 +8°C° 0 mm 1 mps 756 mmHg 88%
    05:00 +7°C° 0 mm 1 mps 756 mmHg 88%
    06:00 +7°C° 0 mm 2 mps 756 mmHg 87%
    07:00 +7°C° 0 mm 2 mps 756 mmHg 86%
    08:00 +7°C° 0 mm 2 mps 756 mmHg 85%
    09:00 +9°C° 0 mm 2 mps 756 mmHg 78%
    10:00 +11°C° 0 mm 3 mps 756 mmHg 70%
    11:00 +14°C° 0 mm 3 mps 755 mmHg 63%
    12:00 +15°C° 0 mm 4 mps 755 mmHg 58%
    13:00 +16°C° 0 mm 5 mps 755 mmHg 54%
    14:00 +18°C° 0 mm 7 mps 755 mmHg 50%
    15:00 +16°C° 0.1 mm 6 mps 756 mmHg 55%
    16:00 +15°C° 0.1 mm 6 mps 756 mmHg 60%
    17:00 +14°C° 0.1 mm 6 mps 757 mmHg 64%
    18:00 +12°C° 0.1 mm 5 mps 758 mmHg 69%
    19:00 +10°C° 0.1 mm 4 mps 759 mmHg 74%
    20:00 +8°C° 0.1 mm 4 mps 760 mmHg 79%
    21:00 +8°C° 0 mm 3 mps 760 mmHg 80%
    22:00 +8°C° 0 mm 3 mps 761 mmHg 81%
    23:00 +8°C° 0 mm 3 mps 762 mmHg 82%
    Show more